This demonstration page uses our WeatherBlox Daily Observations layout. Learn more.

Left ArrowRight Arrow

Hourly Observations for September 16, 2020

Temp ( °F °C ) Dew Point ( °F °C ) Humidity (%) Winds ( mph kmh ) Pressure ( in mb ) Visibility ( mi km ) Precip ( " mm )
12:15 am 00:15 Clear 58 14.7 53 11.5 81 81 S 3 6 30.01 1016 10 16 N/A
12:35 am 00:35 Clear 58 14.6 52 11.3 81 81 N N/A 30.01 1016 10 16 N/A
12:55 am 00:55 Clear 58 14.5 52 11.1 80 80 N N/A 30.01 1016 10 16 N/A
1:15 am 01:15 Clear 59 14.8 52 11.2 79 79 S 6 9 30.02 1017 10 16 N/A
1:35 am 01:35 Clear 59 15 52 11 77 77 S 5 7 30.01 1016 10 16 N/A
1:55 am 01:55 Clear 58 14.6 51 10.8 78 78 S 5 7 30.01 1016 10 16 N/A
2:15 am 02:15 Clear 59 14.8 52 11 78 78 S 6 9 30.03 1017 10 16 N/A
2:35 am 02:35 Clear 58 14.6 51 10.7 78 78 SSW 6 9 30.02 1017 10 16 N/A
2:55 am 02:55 Clear 59 15 51 10.5 75 75 S 6 9 30.03 1017 10 16 N/A
3:15 am 03:15 Clear 59 14.9 51 10.5 75 75 SSW 7 11 30.03 1017 10 16 N/A
3:35 am 03:35 Clear 58 14.6 51 10.5 77 77 SSW 6 9 30.02 1017 10 16 N/A
3:55 am 03:55 Clear 57 14 51 10.3 79 79 N N/A 30.02 1017 10 16 N/A
4:15 am 04:15 Clear 57 13.9 51 10.5 80 80 SSW 5 7 30.02 1017 10 16 N/A
4:35 am 04:35 Clear 58 14.4 51 10.5 78 78 SSW 6 9 30.02 1017 10 16 N/A
4:55 am 04:55 Clear 56 13.6 51 10.3 81 81 N N/A 30.01 1016 10 16 N/A
5:15 am 05:15 Clear 56 13.3 51 10.3 82 82 SSW 5 7 30.02 1017 10 16 N/A
5:35 am 05:35 Clear 53 11.6 48 9.1 85 85 N N/A 30.04 1017 10 16 N/A
5:55 am 05:55 Clear 51 10.7 48 9 89 89 N N/A 30.06 1018 10 16 N/A
6:15 am 06:15 Clear 52 11.3 50 9.9 91 91 NNW 6 9 30.08 1019 10 16 N/A
6:35 am 06:35 Clear 53 11.4 49 9.7 89 89 N N/A 30.06 1018 10 16 N/A
6:55 am 06:55 Clear 51 10.6 49 9.2 91 91 N N/A 30.07 1018 10 16 N/A
7:10 am 07:10 Clear 51 10.7 48 9.1 90 90 N N/A 30.07 1018 10 16 N/A
8:15 am 08:15 Sunny 53 11.6 50 10.2 91 91 NNW 6 9 30.13 1020 10 16 N/A
8:35 am 08:35 Sunny 56 13.3 54 12.3 94 94 N 9 15 30.12 1020 10 16 N/A
8:55 am 08:55 Sunny 59 14.9 56 13.4 91 91 N 13 20 30.12 1020 10 16 N/A
9:15 am 09:15 Sunny 61 15.9 57 13.7 87 87 NNE 14 22 30.12 1020 10 16 N/A
9:35 am 09:35 Sunny 63 17 57 14 83 83 NNE 15 24 30.11 1020 10 16 N/A
9:55 am 09:55 Sunny 64 17.8 56 13.6 77 77 NNE 15 24 30.12 1020 10 16 N/A
10:15 am 10:15 Sunny 65 18.5 56 13.4 72 72 N 16 26 30.12 1020 10 16 N/A
10:35 am 10:35 Sunny 66 19 56 13.5 71 71 N 17 28 30.13 1020 7 11 N/A
10:55 am 10:55 Sunny 68 19.8 56 13.5 67 67 NNE 16 26 30.12 1020 7 11 N/A
11:15 am 11:15 Sunny 69 20.3 55 12.7 62 62 NNE 16 26 30.12 1020 7 11 N/A
11:35 am 11:35 Sunny 69 20.8 54 12.3 58 58 NNE 17 28 30.12 1020 7 11 N/A
11:55 am 11:55 Hazy 70 21.3 54 12.3 57 57 NNE 13 20 30.13 1020 5 8 N/A
12:15 pm 12:15 Sunny 71 21.7 55 12.7 57 57 NNE 15 24 30.11 1020 7 11 N/A
12:35 pm 12:35 Sunny 71 21.8 53 11.9 53 53 NNE 18 30 30.12 1020 7 11 N/A
12:55 pm 12:55 Hazy 72 22.1 54 12.2 54 54 NNE 20 31 30.11 1020 5 8 0.03 0.76
1:15 pm 13:15 Partly Cloudy with Thunderstorms 72 22.2 53 11.7 52 52 NNE 21 33 30.10 1019 7 11 N/A
1:35 pm 13:35 undefined N/A N/A N/A undefined N/A N/A N/A N/A
1:55 pm 13:55 undefined N/A N/A N/A undefined N/A N/A N/A N/A
2:15 pm 14:15 Partly Cloudy 73 23 54 12 50 50 NNE 16 26 30.10 1019 7 11 N/A
2:35 pm 14:35 Hazy 74 23.4 54 12.2 49 49 NNE 15 24 30.10 1019 5 8 N/A
2:55 pm 14:55 Sunny 74 23.2 55 12.6 51 51 NNE 13 20 30.11 1020 7 11 N/A
3:15 pm 15:15 Hazy 73 23 54 12.3 51 51 NNE 16 26 30.10 1019 5 8 N/A
3:35 pm 15:35 Hazy 74 23.4 54 12.2 49 49 NNE 15 24 30.11 1020 5 8 N/A
3:55 pm 15:55 Hazy 73 23 52 11.2 47 47 NNE 18 30 30.09 1019 5 8 N/A
4:15 pm 16:15 Hazy 74 23.3 53 11.4 47 47 NNE 14 22 30.11 1020 5 8 N/A
4:35 pm 16:35 Sunny 73 23 53 11.6 49 49 NNE 12 19 30.09 1019 7 11 N/A
4:55 pm 16:55 Sunny 73 22.9 51 10.4 45 45 NNE 14 22 30.09 1019 7 11 N/A
5:15 pm 17:15 Sunny 73 22.7 52 11 48 48 NNE 13 20 30.09 1019 7 11 N/A
5:35 pm 17:35 Sunny 72 22 51 10.6 48 48 NNE 13 20 30.11 1020 7 11 N/A
5:55 pm 17:55 Sunny 71 21.5 51 10.4 49 49 NNE 10 17 30.11 1020 7 11 N/A
6:15 pm 18:15 Sunny 70 21 52 10.9 53 53 NNE 10 17 30.13 1020 7 11 N/A
6:35 pm 18:35 Sunny 68 20.2 51 10.5 54 54 NNE 12 19 30.13 1020 10 16 N/A
6:55 pm 18:55 Sunny 67 19.4 52 11 58 58 N 7 11 30.15 1021 10 16 N/A
7:15 pm 19:15 Sunny 65 18.1 52 11 63 63 N 7 11 30.16 1021 10 16 N/A
7:35 pm 19:35 Sunny 62 16.9 52 11 68 68 NNE 6 9 30.17 1022 10 16 N/A
7:55 pm 19:55 Clear 60 15.5 52 11.2 76 76 NNE 6 9 30.18 1022 7 11 N/A
8:15 pm 20:15 Clear 58 14.5 52 11 80 80 NNE 7 11 30.19 1022 7 11 N/A
8:35 pm 20:35 Clear 57 14.1 52 11 82 82 N 6 9 30.20 1023 10 16 N/A
8:55 pm 20:55 Clear 57 13.8 51 10.8 82 82 N 5 7 30.21 1023 10 16 N/A
9:15 pm 21:15 Clear 56 13.6 51 10.6 82 82 N 3 6 30.22 1023 10 16 N/A
9:35 pm 21:35 Clear 55 12.9 51 10.4 85 85 N 6 9 30.23 1024 10 16 N/A
9:55 pm 21:55 Clear 55 12.5 50 10.2 86 86 N 6 9 30.23 1024 10 16 N/A
10:15 pm 22:15 Clear 54 12.3 50 10.1 87 87 N 6 9 30.24 1024 10 16 N/A
10:35 pm 22:35 Clear 53 11.5 49 9.5 88 88 N 6 9 30.24 1024 10 16 N/A
10:55 pm 22:55 Clear 52 11.2 49 9.6 90 90 N 7 11 30.24 1024 10 16 N/A
11:15 pm 23:15 Clear 53 11.4 49 9.6 89 89 NNE 8 13 30.24 1024 10 16 N/A
11:35 pm 23:35 Clear 52 11.3 49 9.7 90 90 NNE 8 13 30.24 1024 10 16 N/A
11:55 pm 23:55 Clear 53 11.6 49 9.7 88 88 NNE 9 15 30.25 1024 10 16 N/A

Powered by AerisWeather